This demonstration page uses our WeatherBlox Daily Observations layout. Learn more.

40.92945, -100.16068

Hourly Observations for May 25, 2016

Temp ( °F °C ) Dew Point ( °F °C ) Humidity (%) Winds ( mph kmh ) Pressure ( in mb ) Visibility ( mi km ) Precip ( " mm )
12:15 am 00:15 Mostly Cloudy 62 16.4 55 12.7 79 79 NW 28 44 29.83 1010 7 11.26538 N/A
12:35 am 00:35 Cloudy with Light Rain 60 15.5 55 13 85 85 NNW 22 35 29.8 1009 10 16.0934 N/A
12:55 am 00:55 Cloudy with Nearby Thunderstorms 60 15.6 55 12.7 83 83 N 15 24 29.8 1009 10 16.0934 0.02 0.508
1:15 am 01:15 Mostly Cloudy with Thunderstorms 60 15.7 55 12.9 84 84 NE 15 24 29.74 1007 10 16.0934 0.05 1.27
1:35 am 01:35 Mostly Cloudy with Thunderstorms 59 15.1 55 13 87 87 ENE 6 9 29.74 1007 10 16.0934 0.05 1.27
1:55 am 01:55 Mostly Cloudy with Nearby Thunderstorms 59 15 56 13.1 89 89 SE 9 15 29.74 1007 10 16.0934 0.05 1.27
2:15 am 02:15 Partly Cloudy with Nearby Thunderstorms 59 15.2 56 13.1 87 87 Calm 29.71 1006 10 16.0934 N/A
2:35 am 02:35 Mostly Cloudy 59 15 56 13.4 90 90 S 8 13 29.71 1006 10 16.0934 N/A
2:55 am 02:55 Cloudy 60 15.3 56 13.6 90 90 NW 12 19 29.77 1008 10 16.0934 N/A
3:15 am 03:15 Mostly Cloudy 59 15.2 56 13.3 89 89 NNW 13 20 29.77 1008 7 11.26538 N/A
3:35 am 03:35 Cloudy with Thunderstorms 59 15 56 13.2 89 89 N 8 13 29.74 1007 10 16.0934 N/A
3:55 am 03:55 Cloudy with Light Thunderstorms 60 15.3 55 12.9 86 86 W 8 13 29.8 1009 10 16.0934 0.01 0.254
4:15 am 04:15 Cloudy 58 14.5 55 12.6 88 88 NNE 5 7 29.83 1010 2.5 4.02335 0.3 7.62
4:35 am 04:35 Cloudy with Heavy Rain 58 14.6 55 12.7 88 88 WNW 6 9 29.88 1012 3 4.82802 0.42 10.668
4:55 am 04:55 Cloudy with Light Rain 58 14.5 55 12.6 88 88 NNW 3 6 29.85 1011 7 11.26538 0.48 12.192
5:15 am 05:15 Cloudy 58 14.3 55 12.7 90 90 ESE 7 11 29.85 1011 10 16.0934 N/A
5:35 am 05:35 Cloudy 58 14.4 55 13 91 91 ESE 8 13 29.85 1011 10 16.0934 N/A
5:55 am 05:55 Cloudy 58 14.5 55 12.8 90 90 ESE 9 15 29.85 1011 10 16.0934 N/A
6:15 am 06:15 Cloudy 58 14.5 55 13 91 91 SE 9 15 29.85 1011 10 16.0934 N/A
6:35 am 06:35 Cloudy 58 14.5 55 13 91 91 SE 9 15 29.85 1011 10 16.0934 N/A
6:55 am 06:55 Mostly Cloudy 58 14.7 55 13 90 90 ESE 9 15 29.85 1011 10 16.0934 0 0
7:15 am 07:15 Mostly Cloudy 59 15 55 12.6 86 86 ESE 6 9 29.85 1011 10 16.0934 N/A
7:35 am 07:35 Sunny 60 15.6 55 13 85 85 ESE 8 13 29.83 1010 10 16.0934 N/A
7:55 am 07:55 Sunny 61 16.3 56 13.1 81 81 ESE 13 20 29.83 1010 10 16.0934 N/A
8:15 am 08:15 Sunny 62 16.5 56 13.3 82 82 SE 7 11 29.83 1010 10 16.0934 N/A
8:35 am 08:35 Sunny 63 17.1 56 13.4 79 79 ESE 6 9 29.83 1010 10 16.0934 N/A
8:55 am 08:55 Sunny 64 17.6 56 13.6 78 78 ESE 5 7 29.83 1010 10 16.0934 N/A
9:15 am 09:15 Sunny 64 18 57 14.1 78 78 SSE 6 9 29.83 1010 10 16.0934 N/A
9:35 am 09:35 Sunny 66 18.8 59 14.8 78 78 SSE 6 9 29.8 1009 10 16.0934 N/A
9:55 am 09:55 Sunny 67 19.3 58 14.2 72 72 SE 6 9 29.8 1009 10 16.0934 N/A
10:15 am 10:15 Sunny 68 19.9 57 13.9 69 69 SE 6 9 29.8 1009 10 16.0934 N/A
10:35 am 10:35 Sunny 69 20.8 60 15.3 71 71 SSE 9 15 29.8 1009 10 16.0934 N/A
10:55 am 10:55 Sunny 70 21.2 60 15.4 70 70 SE 8 13 29.8 1009 10 16.0934 N/A
11:15 am 11:15 Sunny 71 21.7 59 15.1 66 66 SSE 8 13 29.8 1009 10 16.0934 N/A
11:35 am 11:35 Sunny 71 21.9 57 13.9 61 61 SE 9 15 29.8 1009 10 16.0934 N/A
11:55 am 11:55 Sunny 72 22.1 58 14.5 62 62 SSE 8 13 29.8 1009 10 16.0934 N/A
12:15 pm 12:15 Sunny 73 22.6 59 15.2 63 63 S 9 15 29.77 1008 10 16.0934 N/A
12:35 pm 12:35 Sunny 73 23 59 14.8 60 60 S 8 13 29.77 1008 10 16.0934 N/A
12:55 pm 12:55 Sunny 73 23 59 15.2 62 62 SE 5 7 29.77 1008 10 16.0934 N/A
1:15 pm 13:15 Partly Cloudy 73 22.6 59 15 62 62 SSW 7 11 29.77 1008 10 16.0934 N/A
1:35 pm 13:35 Partly Cloudy 73 22.9 59 14.9 61 61 Calm 29.77 1008 10 16.0934 N/A
1:55 pm 13:55 Partly Cloudy 74 23.4 59 14.8 59 59 Calm 29.77 1008 7 11.26538 N/A
2:15 pm 14:15 Partly Cloudy 74 23.5 58 14.3 56 56 Calm 29.77 1008 10 16.0934 N/A
2:35 pm 14:35 Sunny 75 24.1 59 14.8 56 56 SW 3 6 29.77 1008 10 16.0934 N/A
2:55 pm 14:55 Sunny 76 24.3 57 14.1 53 53 NNW 3 6 29.77 1008 10 16.0934 N/A
3:15 pm 15:15 Sunny 76 24.2 56 13.2 50 50 Calm 29.77 1008 10 16.0934 N/A
3:35 pm 15:35 Sunny 76 24.6 57 13.9 51 51 Calm 29.77 1008 10 16.0934 N/A
3:55 pm 15:55 Sunny 77 24.9 58 14.6 53 53 WNW 7 11 29.74 1007 10 16.0934 N/A
4:15 pm 16:15 Sunny 78 25.3 57 14 50 50 Calm 29.74 1007 10 16.0934 N/A
4:35 pm 16:35 Sunny 78 25.4 60 15.7 55 55 Calm 29.71 1006 10 16.0934 N/A
4:55 pm 16:55 Sunny 77 25.1 57 13.7 49 49 Calm 29.74 1007 10 16.0934 N/A
5:15 pm 17:15 Sunny 77 25.2 58 14.4 51 51 ENE 3 6 29.74 1007 10 16.0934 N/A
5:35 pm 17:35 Sunny 78 25.5 58 14.5 51 51 Calm 29.71 1006 10 16.0934 N/A
5:55 pm 17:55 Sunny 77 25.2 59 15.1 54 54 N 5 7 29.74 1007 10 16.0934 N/A
6:15 pm 18:15 Sunny 78 25.5 58 14.7 51 51 Calm 29.71 1006 10 16.0934 N/A
6:35 pm 18:35 Sunny 75 24 59 14.8 57 57 NNW 3 6 29.74 1007 10 16.0934 N/A
6:55 pm 18:55 Sunny 76 24.3 57 13.9 52 52 Calm 29.74 1007 10 16.0934 N/A
7:15 pm 19:15 Sunny 73 22.8 61 16.3 67 67 E 5 7 29.71 1006 10 16.0934 N/A
7:35 pm 19:35 Sunny 71 21.7 61 16 70 70 E 5 7 29.71 1006 10 16.0934 N/A
7:55 pm 19:55 Sunny 72 22.2 60 15.3 65 65 E 3 6 29.74 1007 10 16.0934 N/A
8:15 pm 20:15 Sunny with Nearby Thunderstorms 71 21.9 61 15.9 69 69 Calm 29.74 1007 10 16.0934 N/A
8:35 pm 20:35 Sunny 69 20.6 53 11.6 56 56 N 13 20 29.8 1009 10 16.0934 N/A
8:55 pm 20:55 Partly Cloudy 68 19.8 54 12.2 62 62 WNW 35 56 29.85 1011 10 16.0934 N/A
9:15 pm 21:15 Cloudy 59 14.9 52 11.3 79 79 WNW 31 50 29.94 1014 4 6.43736 0.06 1.524
9:35 pm 21:35 Cloudy with Nearby Thunderstorms 59 15 53 11.5 80 80 NW 22 35 29.97 1015 7 11.26538 0.12 3.048
9:55 pm 21:55 Cloudy 59 15 53 11.5 80 80 NE 13 20 29.91 1013 10 16.0934 0.14 3.556
10:15 pm 22:15 Partly Cloudy with Nearby Thunderstorms 59 15 52 11.3 79 79 NE 9 15 29.88 1012 10 16.0934 N/A
10:35 pm 22:35 Clear 58 14.5 52 11 80 80 E 9 15 29.88 1012 10 16.0934 N/A
10:55 pm 22:55 Partly Cloudy 58 14.7 52 11.3 80 80 E 8 13 29.88 1012 10 16.0934 N/A
11:15 pm 23:15 Partly Cloudy 60 15.3 52 11.1 76 76 S 6 9 29.91 1013 10 16.0934 N/A
11:35 pm 23:35 Mostly Cloudy with Rain 60 15.5 53 11.4 77 77 SSW 28 44 29.94 1014 10 16.0934 0.01 0.254
11:55 pm 23:55 Partly Cloudy 64 17.6 49 9.4 59 59 S 14 22 29.85 1011 10 16.0934 0.02 0.508

Powered by AerisWeather